Location: Parc des �les de St-Timoth�e
(45.2924°N, 74.0481°W)
Time: 12:01:04
(UTC-04:00)

ISS - All Passes

Search period start: 31 August 2016 00:00
Search period end: 10 September 2016 00:00
Orbit: 402 x 406 km, 51.6° (Epoch: 31 August)

Date Brightness Start Highest point End Pass type
(mag) Time Alt. Az. Time Alt. Az. Time Alt. Az.
31 Aug - 07:28:02 10° SSW 07:30:50 26° SE 07:33:38 10° E daylight
31 Aug - 09:03:54 10° WSW 09:07:08 54° NNW 09:10:23 10° NE daylight
31 Aug - 10:41:13 10° WNW 10:44:04 26° N 10:46:55 10° NE daylight
31 Aug - 12:18:02 10° NW 12:21:07 36° NNE 12:24:12 10° E daylight
31 Aug - 13:54:29 10° WNW 13:57:42 52° SW 14:00:54 10° SE daylight
01 Sep - 06:36:38 10° S 06:38:35 15° SE 06:40:33 10° E daylight
01 Sep - 08:11:22 10° WSW 08:14:40 85° NNW 08:17:57 10° ENE daylight
01 Sep - 09:48:31 10° WNW 09:51:26 29° N 09:54:23 10° NE daylight
01 Sep - 11:25:35 10° NW 11:28:32 29° N 11:31:28 10° ENE daylight
01 Sep - 13:01:59 10° WNW 13:05:18 90° SW 13:08:34 10° ESE daylight
01 Sep - 14:39:32 10° W 14:41:20 14° SW 14:43:07 10° SSW daylight
02 Sep - 07:19:02 10° SW 07:22:14 56° SE 07:25:29 10° ENE daylight
02 Sep - 08:55:46 10° W 08:58:51 35° NNW 09:01:55 10° NE daylight
02 Sep - 10:33:02 10° NW 10:35:54 26° N 10:38:45 10° ENE daylight
02 Sep - 12:09:34 10° NW 12:12:49 57° NNE 12:16:04 10° ESE daylight
02 Sep - 13:46:22 10° W 13:49:06 24° SW 13:51:49 10° SSE daylight
03 Sep - 06:26:57 10° SSW 06:29:54 31° SE 06:32:51 10° ENE daylight
03 Sep - 08:03:05 10° W 08:06:16 47° NNW 08:09:29 10° NE daylight
03 Sep - 09:40:25 10° WNW 09:43:15 26° N 09:46:05 10° ENE daylight
03 Sep - 11:17:09 10° NW 11:20:16 39° NNE 11:23:24 10° E daylight
03 Sep - 12:53:38 10° WNW 12:56:47 43° SW 12:59:54 10° SE daylight
04 Sep - 05:35:18 10° S 05:37:37 18° SE 05:39:56 10° E visible
04 Sep - 07:10:29 10° WSW 07:13:46 73° NNW 07:17:03 10° ENE daylight
04 Sep - 08:47:42 10° WNW 08:50:36 27° N 08:53:30 10° NE daylight
04 Sep - 10:24:41 10° NW 10:27:41 31° NNE 10:30:40 10° ENE daylight
04 Sep - 12:01:05 10° WNW 12:04:23 76° SSW 12:07:40 10° SE daylight
04 Sep - 13:39:12 10° WSW 13:40:20 11° SW 13:41:29 10° SSW daylight
05 Sep - 06:18:04 10° SW 06:21:19 68° SE 06:24:35 10° ENE daylight
05 Sep - 07:54:58 10° W 07:57:58 32° NNW 08:01:00 10° NE daylight
05 Sep - 09:32:10 10° NW 09:35:03 27° N 09:37:55 10° ENE daylight
05 Sep - 11:08:38 10° WNW 11:11:55 66° NNE 11:15:11 10° ESE daylight
05 Sep - 12:45:36 10° W 12:48:07 20° SW 12:50:36 10° S daylight
06 Sep - 05:25:52 10° SSW 05:28:56 38° SE 05:32:00 10° ENE visible
06 Sep - 07:02:14 10° W 07:05:22 42° NNW 07:08:32 10° NE daylight
06 Sep - 08:39:33 10° WNW 08:42:24 26° N 08:45:13 10° ENE daylight
06 Sep - 10:16:12 10° NW 10:19:23 44° NNE 10:22:33 10° E daylight
06 Sep - 11:52:46 10° WNW 11:55:49 35° SW 11:58:50 10° SSE daylight
07 Sep - 04:34:02 10° S 04:36:36 22° SE 04:39:12 10° E visible
07 Sep - 06:09:35 10° WSW 06:12:50 62° NNW 06:16:06 10° ENE daylight
07 Sep - 07:46:51 10° WNW 07:49:44 27° N 07:52:35 10° NE daylight
07 Sep - 09:23:45 10° NW 09:26:47 33° NNE 09:29:49 10° E daylight
07 Sep - 11:00:10 10° WNW 11:03:25 63° SSW 11:06:40 10° SE daylight
08 Sep - 03:42:58 10° SSE 03:44:22 12° SE 03:45:46 10° ESE visible
08 Sep - 05:17:04 10° SW 05:20:20 81° SSE 05:23:38 10° ENE visible
08 Sep - 06:54:06 10° WNW 06:57:04 30° NNW 07:00:02 10° NE daylight
08 Sep - 08:31:14 10° NW 08:34:09 28° N 08:37:03 10° ENE daylight
08 Sep - 10:07:40 10° WNW 10:10:58 77° NNE 10:14:15 10° ESE daylight
08 Sep - 11:44:52 10° W 11:47:05 17° SW 11:49:17 10° S daylight
09 Sep - 04:24:46 10° SW 04:27:55 45° SE 04:31:05 10° ENE visible
09 Sep - 06:01:21 10° W 06:04:27 38° NNW 06:07:33 10° NE daylight
09 Sep - 07:38:38 10° WNW 07:41:28 26° N 07:44:19 10° ENE daylight
09 Sep - 09:15:13 10° NW 09:18:25 49° NNE 09:21:39 10° E daylight
09 Sep - 10:51:52 10° WNW 10:54:47 29° SW 10:57:41 10° SSE daylight
